Regional Weather Roundup
Issued by NWS Sterling, VA

Home | Current Version | Previous Version | Graphics & Text | Print | Product List | Glossary On
Versions: 1 2 3 4 5 6 7 8 9 10 11 12 13 14 15 16 17 18 19 20 21 22 23 24 25 26 27
000
ASUS41 KLWX 220510
RWRLWX

REGIONAL WEATHER ROUNDUP
NATIONAL WEATHER SERVICE BALTIMORE MD/WASHINGTON DC
1200 AM EST SUN JAN 22 2017

Note: "FAIR" indicates few or no clouds below 12,000 feet
with no significant weather and/or obstructions to visibility.
 TC=TEMPERATURE CELSIUS

 * =Non NWS site. Station does not report precipitation (e.g. rain,
    snow, etc.), thunder, or fog.

DCZ001-MDZ009-015-VAZ040>042-051-053>054-220600-
WASHINGTON METRO

CITY           SKY/WX    TMP DP  RH WIND       PRES   REMARKS
WASHINGTON NAT CLOUDY    48  48 100 N6        29.77F FOG
DULLES         FOG       48  47  96 CALM      29.76F VSB 1/8
ANDREWS AFB    FOG       46  45  93 NE5       29.75F VSB 3/4
FT BELVOIR     CLOUDY    48  48 100 CALM      29.75F FOG
QUANTICO       FOG       48  48 100 N6        29.76F VSB 1/2
COLLEGE PARK*  CLOUDY    45  45 100 CALM      29.76F
LEESBURG*      FOG       48  48 100 CALM      29.77F VSB 1/2
GAITHERSBURG*  CLOUDY    46  43  87 CALM      29.79F VSB 1/2

$$

MDZ006>007-011-014-220600-
BALTIMORE METRO

CITY           SKY/WX    TMP DP  RH WIND       PRES   REMARKS
BWI AIRPORT    FOG       45  45 100 NE5       29.77F VSB 3/4
MD SCIENCE CTR   N/A     47  44  90 MISG      29.78F
ANNAPOLIS      CLOUDY    46  44  93 NE6       29.76F FOG
FORT MEADE*    CLOUDY    45  43  93 CALM      29.78F

$$

MDZ012-015-019>023-220600-
MARYLAND EASTERN SHORE

CITY           SKY/WX    TMP DP  RH WIND       PRES   REMARKS
OCEAN CITY     LGT RAIN  44  44 100 N5        29.76F FOG
SALISBURY      LGT RAIN  47  46  97 NE5       29.76F
BAY BRIDGE AP* FOG       45  45 100 E3        29.76F VSB 1
CAMBRIDGE*     CLOUDY    45  45 100 N5        29.75F VSB 1
EASTON*        CLOUDY    48  46  93 NE3       29.81F FOG

$$

MDZ017>025-220600-
SOUTHERN MARYLAND

CITY           SKY/WX    TMP DP  RH WIND       PRES   REMARKS
PATUXENT RIVER LGT RAIN  44  44 100 E5        29.74F FOG
ST INIGOES     LGT RAIN  47  45  93 E6        29.74F
LEONARDTOWN*   CLOUDY    45  43  93 CALM      29.76F

$$

MDZ003>005-220600-
NORTH CENTRAL MARYLAND

CITY           SKY/WX    TMP DP  RH WIND       PRES   REMARKS
FREDERICK*     FOG       45  45 100 N3        29.78F VSB 1/2
HAGERSTOWN APT FOG       46  43  89 CALM      29.75F VSB 1/2
WESTMINSTER*   FOG       45  45 100 CALM      29.76F VSB 1/4

$$

MDZ501>502-220600-
WESTERN MARYLAND

CITY           SKY/WX    TMP DP  RH WIND       PRES   REMARKS
OAKLAND*         N/A     48  43  81 CALM      29.71F
CUMBERLAND*    CLOUDY    45  45 100 CALM      29.79F

$$

VAZ025>031-220600-
SHENANDOAH VALLEY

CITY           SKY/WX    TMP DP  RH WIND       PRES   REMARKS
WINCHESTER*    FOG       45  45 100 CALM      29.75F VSB 1/4
FRONT ROYAL*   CLOUDY    45  45 100 CALM      29.73F VSB 1
LURAY*         CLOUDY    46  46 100 N3        29.74S FOG
NEW MARKET*    CLOUDY    46  45  97 NE3       29.74F
STAUNTON*      LGT RAIN  47  46  98 NE5       29.73F
WAYNESBORO*    CLOUDY    48  47  97 N3        29.72F

$$

WVZ021-048>050-054>055-220600-
EASTERN WEST VIRGINIA PANHANDLE

CITY           SKY/WX    TMP DP  RH WIND       PRES   REMARKS
MARTINSBURG    FOG       45  44  97 N5        29.75F VSB 1/4
PETERSBURG*    CLOUDY    47  46  95 CALM      29.75F FOG

$$

VAZ036>039-050-220600-
CENTRAL FOOTHILLS

CITY           SKY/WX    TMP DP  RH WIND       PRES   REMARKS
CHARLOTTESVILL FOG       50  48  93 NE6       29.71F VSB 1/4
CULPEPER*      FOG       49  49 100 N3        29.75F VSB 1/2
ORANGE*        FOG       50  50 100 CALM      29.75F VSB 1/2
GORDONSVILLE*  CLOUDY    49  49 100 NE3       29.72F FOG
WARRENTON*     FOG       49  47  91 N3        29.74F VSB 1/4

$$

VAZ055>057-220600-
NORTH AND CENTRAL PIEDMONT

CITY           SKY/WX    TMP DP  RH WIND       PRES   REMARKS
FREDERICKSBRG* CLOUDY    48  48 100 NE6       29.74F FOG
STAFFORD*      FOG       47  47 100 CALM      29.79F VSB 3/4

$$

NCZ024-NYZ072-PAZ021-071-VAZ022-071-220600-
OTHER REGIONAL OBSERVATIONS

CITY           SKY/WX    TMP DP  RH WIND       PRES   REMARKS
NEW YORK CITY  CLOUDY    44  44 100 CALM      29.80F FOG
PHILADELPHIA   DRZL/FOG  46  45  96 CALM      29.80F VSB 1/2
PITTSBURGH     LGT RAIN  50  49  96 CALM      29.69F
ROANOKE        CLOUDY    51  49  92 NE8       29.73S
RICHMOND       RAIN      49  49 100 N9        29.71F FOG
RALEIGH        FOG       55  55 100 CALM      29.66F VSB 1/8

$$

ANZ530>537-220600-
MARINE OBSERVATIONS

STATION/POSITION TIME  TEMP    WIND        PRES
                       AIR SEA DIR/SP/G
                 (UTC) (F)     (DEG/KT/KT) (MB)
THOMAS PT LIGHT  0500   44 40   50/  7/  8   N/A
BALT KEY BRIDGE  0448   44      10/  4/  4 1008.5F
COVE POINT       0442   43      30/  7/  8 1008.1F
LEWISETTA        0442   44 44   90/  6/  7 1007.0F
SOLOMONS ISLAND  0442   44 41   50/  4/  4   N/A
PINEY POINT      0448          120/  8/  9   N/A

$$





USA.gov is the U.S. government's official web portal to all federal, state and local government web resources and services.